• Join FlightAware (Why Join?)
  • Login
  • US Flag 
01:00PM EST


 

Airport Tracker/Info


-or-


 

Live Flight TrackerFlight Track Log ✈ GJS3657 ✈ 17-Jun-2013 ✈ KALB - KORD

Flight Track Log - Related Links

Times and Time Zones

All times are in EDT time to prevent confusion due to time zone crossing. See the GJS3657 flight status page for this flight to view local times or setup timezone preferences in your user account.

Time Position Orientation Groundspeed Altitude Reporting Facility
EDT Latitude Longitude Course Direction KTS MPH feet Rate Location/Type
07:04AM 42.7256 -73.8053 179° South 159 183 1,300  Level Boston Center
07:05AM 42.7028 -73.8047 179° South 167 192 1,900 1,912 Climbing Boston Center
07:06AM 42.7125 -73.8586 284° West 211 243 4,200 2,071 Climbing Boston Center
07:07AM 42.7514 -73.9047 319° Northwest 235 270 5,800 2,411 Climbing Boston Center
07:08AM 42.8069 -73.9628 323° Northwest 241 277 8,700 2,300 Climbing Boston Center
07:09AM 42.8728 -74.0322 322° Northwest 254 292 10,400 1,750 Climbing Boston Center
07:10AM 42.9364 -74.0964 324° Northwest 290 334 12,200 2,000 Climbing Boston Center
07:11AM 43.0186 -74.1808 323° Northwest 326 375 14,400 1,950 Climbing Boston Center
07:12AM 43.0906 -74.2456 327° Northwest 343 395 16,100 1,850 Climbing Boston Center
07:13AM 43.1808 -74.3364 324° Northwest 358 412 18,100 1,835 Climbing Boston Center
07:14AM 43.2583 -74.4244 320° Northwest 358 412 19,800 1,700 Climbing Boston Center
07:15AM 43.3364 -74.5039 323° Northwest 370 426 21,500 1,664 Climbing Boston Center
07:16AM 43.4222 -74.5842 326° Northwest 375 432 23,100 1,400 Climbing Boston Center
07:17AM 43.4833 -74.6578 319° Northwest 380 437 24,300 1,350 Climbing Boston Center
07:18AM 43.4656 -74.8172 261° West 317 365 25,800 1,398 Climbing Boston Center
07:19AM 43.4328 -74.9819 255° West 337 388 27,400 1,353 Climbing Boston Center
07:20AM 43.4050 -75.1150 254° West 358 412 28,800 1,412 Climbing Boston Center
07:21AM 43.3719 -75.2681 254° West 377 434 30,200 1,100 Climbing Boston Center
07:22AM 43.3414 -75.4036 253° West 372 428 31,000 800 Climbing Boston Center
07:23AM 43.3131 -75.5336 253° West 377 434 31,800 807 Climbing Boston Center
07:24AM 43.2822 -75.6661 252° West 377 434 32,600 700 Climbing Boston Center
07:25AM 43.2603 -75.7733 254° West 377 434 33,200 800 Climbing Boston Center
07:26AM 43.2222 -75.9364 252° West 377 434 34,200 863 Climbing Boston Center
07:27AM 43.1719 -76.1617 253° West 372 428 35,500 788 Climbing Cleveland Center
07:28AM 43.1606 -76.2992 264° West 372 428 36,300 800 Climbing Cleveland Center
07:29AM 43.1589 -76.4303 269° West 361 415 37,100 750 Climbing Cleveland Center
07:30AM 43.1617 -76.5669 272° West 361 415 37,800 450 Climbing Cleveland Center
07:31AM 43.1600 -76.7008 269° West 361 415 38,000 100 Climbing Cleveland Center
07:32AM 43.1597 -76.8203 270° West 355 409 38,000  Level Cleveland Center
07:33AM 43.1600 -76.9600 270° West 360 414 38,000  Level Cleveland Center
07:34AM 43.1581 -77.1022 269° West 365 420 38,000  Level Cleveland Center
07:35AM 43.1581 -77.2361 270° West 365 420 38,000  Level Cleveland Center
07:36AM 43.1556 -77.3700 269° West 365 420 38,000  Level Cleveland Center
07:37AM 43.1550 -77.5039 270° West 365 420 38,000  Level Cleveland Center
07:38AM 43.1522 -77.6406 268° West 365 420 38,000  Level Cleveland Center
07:39AM 43.1514 -77.7744 270° West 365 420 38,000  Level Cleveland Center
07:40AM 43.1483 -77.9111 268° West 365 420 38,000  Level Cleveland Center
07:41AM 43.1472 -78.0478 269° West 365 420 38,000  Level Cleveland Center
07:42AM 43.1461 -78.1872 269° West 365 420 38,000  Level Cleveland Center
07:43AM 43.1447 -78.3239 269° West 365 420 38,000  Level Cleveland Center
07:44AM 43.1411 -78.4664 268° West 370 426 38,000  Level Cleveland Center
07:45AM 43.1372 -78.6031 268° West 370 426 38,000  Level Cleveland Center
07:46AM 43.1333 -78.7456 268° West 370 426 38,000  Level Cleveland Center
07:47AM 43.1292 -78.8822 268° West 370 426 38,000  Level Cleveland Center
07:48AM 43.1167 -78.9500 256° West 370 426 38,000  Level Toronto Center
07:49AM 43.1167 -79.0833 270° West 370 426 38,000  Level Toronto Center
07:50AM 43.1000 -79.2167 260° West 370 426 38,000  Level Toronto Center
07:51AM 43.1000 -79.3667 270° West 380 437 38,000  Level Toronto Center
07:52AM 43.1000 -79.5167 270° West 380 437 38,000  Level Toronto Center
07:53AM 43.1000 -79.6500 270° West 380 437 38,000  Level Toronto Center
07:54AM 43.0833 -79.8167 262° West 380 437 38,000  Level Toronto Center
07:55AM 43.0833 -79.9500 270° West 380 437 38,000  Level Toronto Center
07:56AM 43.0833 -80.0833 270° West 370 426 38,000  Level Toronto Center
07:57AM 43.0667 -80.2333 261° West 370 426 38,000  Level Toronto Center
07:58AM 43.0667 -80.3667 270° West 360 414 38,000  Level Toronto Center
07:59AM 43.0667 -80.5000 270° West 360 414 38,000  Level Toronto Center
08:00AM 43.0500 -80.6333 260° West 360 414 38,000  Level Toronto Center
08:01AM 43.0500 -80.7667 270° West 360 414 38,000  Level Toronto Center
08:02AM 43.0333 -80.9167 261° West 350 403 38,000  Level Toronto Center
08:03AM 43.0167 -81.0500 260° West 350 403 38,000  Level Toronto Center
08:04AM 43.0167 -81.1833 270° West 360 414 38,000  Level Toronto Center
08:05AM 43.0167 -81.3167 270° West 360 414 38,000  Level Toronto Center
08:06AM 43.0167 -81.4500 270° West 360 414 38,000  Level Toronto Center
08:07AM 43.0167 -81.6000 270° West 360 414 38,000  Level Toronto Center
08:08AM 43.0167 -81.7333 270° West 360 414 38,000  Level Toronto Center
08:09AM 43.0167 -81.8667 270° West 360 414 38,000  Level Toronto Center
08:10AM 43.0000 -82.0000 260° West 360 414 38,000  Level Toronto Center
08:11AM 43.0000 -82.1333 270° West 360 414 38,000  Level Toronto Center
08:12AM 43.0000 -82.2833 270° West 370 426 38,000  Level Toronto Center
08:13AM 43.0000 -82.4167 270° West 360 414 38,000  Level Toronto Center
08:14AM 43.0000 -82.5500 270° West 360 414 38,000  Level Toronto Center
08:15AM 42.9833 -82.6833 260° West 350 403 38,000  Level Toronto Center
08:15AM 43.0011 -82.7181 305° West 359 413 38,000  Level Cleveland Center
08:16AM 42.9983 -82.8542 268° West 359 413 38,000  Level Cleveland Center
08:17AM 42.9936 -82.9844 267° West 359 413 38,000  Level Cleveland Center
08:18AM 42.9889 -83.1178 267° West 359 413 38,000  Level Cleveland Center
08:19AM 42.9858 -83.2539 268° West 359 413 38,000  Level Cleveland Center
08:20AM 42.9803 -83.3928 267° West 365 420 38,000  Level Cleveland Center
08:21AM 42.9750 -83.5286 267° West 365 420 38,000  Level Cleveland Center
08:22AM 42.9692 -83.6675 267° West 365 420 38,000 -100 Level Cleveland Center
08:23AM 42.9592 -83.8033 264° West 365 420 37,800 -600 Descending Cleveland Center
08:24AM 42.9472 -83.9361 263° West 365 420 36,800 -1,000 Descending Cleveland Center
08:25AM 42.9353 -84.0572 262° West 348 400 35,800 -1,000 Descending Cleveland Center
08:26AM 42.9250 -84.1844 264° West 342 394 34,800 -896 Descending Cleveland Center
08:28AM 42.9089 -84.3444 262° West 352 405 33,800 -1,015 Descending Chicago Center
08:29AM 42.8950 -84.4811 262° West 360 414 32,500 -871 Descending Chicago Center
08:30AM 42.8811 -84.6214 262° West 370 426 32,000 -242 Descending Chicago Center
08:31AM 42.8642 -84.7894 262° West 374 430 32,000  Level Chicago Center
08:32AM 42.8483 -84.9311 261° West 377 434 32,000  Level Chicago Center
08:33AM 42.8339 -85.0703 262° West 374 430 32,000 -194 Level Chicago Center
08:34AM 42.8181 -85.2117 261° West 377 434 31,600 -672 Descending Chicago Center
08:35AM 42.8025 -85.3581 262° West 387 445 30,600 -960 Descending Chicago Center
08:36AM 42.7864 -85.5044 262° West 391 450 29,600 -1,306 Descending Chicago Center
08:37AM 42.7586 -85.6544 256° West 406 467 27,900 -2,323 Descending Chicago Center
08:38AM 42.7272 -85.8328 257° West 403 464 24,800 -2,710 Descending Chicago Center
08:39AM 42.7011 -85.9747 256° West 389 448 22,300 -1,887 Descending Chicago Center
08:40AM 42.6761 -86.1133 256° West 377 434 20,900 -1,113 Descending Chicago Center
08:41AM 42.6517 -86.2458 256° West 364 419 20,000 -726 Descending Chicago Center
08:42AM 42.6250 -86.3769 255° West 359 413 19,400 -919 Descending Chicago Center
08:43AM 42.6022 -86.5064 257° West 354 407 18,100 -1,258 Descending Chicago Center
08:44AM 42.5775 -86.6367 256° West 356 410 16,800 -2,081 Descending Chicago Center
08:45AM 42.5450 -86.7903 254° West 355 409 13,800 -2,323 Descending Chicago Center
08:46AM 42.5108 -86.9083 249° West 342 394 12,000 -1,536 Descending Chicago Center
08:47AM 42.4778 -87.0292 250° West 341 392 10,600 -1,056 Descending Chicago Center
08:48AM 42.4456 -87.1458 250° West 334 384 9,800 -581 Descending Chicago Center
08:49AM 42.4053 -87.2311 237° Southwest 301 346 9,400 -387 Descending Chicago Center
08:50AM 42.3089 -87.2447 186° South 295 339 9,000 -194 Descending Chicago Center
08:51AM 42.2289 -87.2531 184° South 291 335 9,000  Level Chicago Center
08:52AM 42.1511 -87.2600 184° South 282 325 9,000  Level Chicago Center
08:53AM 42.0817 -87.2658 184° South 253 291 9,000  Level Chicago Center
08:54AM 42.0186 -87.2300 157° South 259 298 9,000 -677 Level Chicago Center
08:55AM 41.9831 -87.3169 241° Southwest 226 260 7,600 -968 Descending Chicago Center
08:56AM 41.9831 -87.3983 270° West 218 251 7,000 -387 Descending Chicago Center
08:58AM 41.9825 -87.4767 269° West 213 245 6,800 -891 Descending Chicago Center
08:59AM 41.9833 -87.5739 271° West 219 252 5,100 -1,266 Descending Chicago Center
09:00AM 41.9833 -87.6503 270° West 212 244 4,100 -968 Descending Chicago Center
09:01AM 41.9828 -87.7147 269° West 186 214 3,100 -871 Descending Chicago Center
09:02AM 41.9836 -87.7761 271° West 171 197 2,300 -726 Descending Chicago Center
09:03AM 41.9836 -87.8281 270° West 151 174 1,600 -763 Descending Chicago Center
09:04AM 41.9833 -87.8833 270° West 134 154 800 -857 Descending Chicago TRACON
09:06AM 41.9667 -87.9000 217° Southwest  Level FlightAware Approximate